Location: Torrente Cerretello
(41.1167°N, 14.7333°E)
Time: 22:51:15
(UTC+00:00)

Daily predictions for brighter satellites

Satellite Brightness Start Highest point End
(mag) Time Altitude Azimuth Time Altitude Azimuth Time Altitude Azimuth
Meteor 1-18 Rocket 4.4 18:56:53 10° S 19:02:42 64° E 19:08:34 10° NNE
USA 215 3.4 18:56:51 10° SE 19:03:23 83° SW 19:09:57 10° NW
SL-08 R/B 3.9 19:05:21 10° N 19:09:57 62° WNW 19:14:29 10° SSW
NOSS 3-4 (A) 3.2 19:05:40 10° SSW 19:10:50 56° ESE 19:16:20 10° NE
NOSS 3-4 (C) 3.2 19:05:48 10° SSW 19:10:56 55° ESE 19:16:25 10° NE
MOS 1 4.5 19:08:40 10° SSE 19:14:15 61° ENE 19:19:50 10° N
Meteor 2-4 Rocket 4.3 19:09:04 10° SSW 19:14:56 68° W 19:20:52 10° N
Delta 2 Rocket 4.3 19:13:23 10° WSW 19:16:51 29° SSW 19:20:28 10° SE
Okean-O 3.3 19:13:23 10° SE 19:17:26 38° ENE 19:21:31 10° N
Cosmos 1110 Rocket 4.2 19:12:27 10° NNW 19:17:38 60° ENE 19:22:44 10° SSE
Cosmos 1934 Rocket 4.3 19:12:01 10° N 19:18:24 75° W 19:24:42 10° S
COSMOS 2428 2.8 19:14:57 10° NNW 19:20:42 90° WSW 19:26:25 10° SSE
Cosmos 1818 4.1 19:16:11 10° S 19:21:06 36° ESE 19:26:02 10° NE
Cosmos 1331 Rocket 4.1 19:16:40 10° NNW 19:21:45 60° ENE 19:26:49 10° SSE
USA 305 2.9 19:18:38 10° SSW 19:22:25 44° SE 19:25:59 10° ENE
Cosmos 1633 Rocket 4.3 19:20:46 10° NNE 19:24:18 24° ENE 19:27:33 11° SE
Lacrosse 4 Rocket 3.7 19:22:38 10° NNE 19:24:48 14° NE 19:26:57 10° ENE
Cosmos 2297 Rocket 2.2 19:23:57 10° SSW 19:29:34 73° ESE 19:35:13 10° NNE
Cosmos 1408 Rocket 4.3 19:26:07 10° NNW 19:30:15 51° W 19:34:24 10° S
Cosmos 614 Rocket 4.3 19:27:00 10° S 19:31:55 46° ESE 19:36:50 10° NNE
Cosmos 1500 Rocket 4.1 19:28:02 10° NNW 19:32:24 61° W 19:36:45 10° S
Sich 1 4.0 19:28:44 10° NNW 19:32:43 45° W 19:36:41 10° SSW
Cosmos 1328 Rocket 4.1 19:29:27 10° SSE 19:33:31 40° E 19:37:38 10° NNE
Ariane Rocket 4.5 19:29:52 10° ESE 19:33:45 23° ENE 19:37:40 10° NNE
ARIANE 6 FM1 Upper Stage 3.2 19:32:43 10° NNW 19:36:45 49° NE 19:40:10 14° ESE
NOSS 0 Rocket 4.0 19:31:37 10° NNW 19:37:51 88° ENE 19:43:43 12° SSE
Cosmos 1455 2.8 19:38:50 10° NNE 19:41:06 23° ENE 19:42:16 17° ESE
CZ-4B R/B 4.1 19:40:56 10° S 19:45:53 57° W 19:51:00 10° NNW
ATLAS 2A CENTAUR R/B 4.3 19:36:28 10° WSW 19:46:51 23° SW 19:50:35 12° SSE
Meteor PRIRODA 3.8 19:44:37 10° S 19:47:25 47° W 19:50:15 10° NNW
MetOp-B 4.4 19:42:54 10° S 19:48:14 72° WSW 19:53:37 10° NNW
Cosmos 1758 4.4 19:46:38 10° NNE 19:49:48 26° ENE 19:51:37 18° ESE
Cosmos 1727 Rocket 4.0 19:46:07 10° S 19:52:12 65° E 19:58:19 10° NNE
ATLAS CENTAUR R/B 2.6 19:52:05 10° N 19:55:20 26° NE 19:57:42 15° E
Cosmos 1452 Rocket 3.6 19:50:06 10° NNW 19:55:22 78° WSW 19:59:53 14° SSE
SL-16 R/B 3.8 19:51:19 10° N 19:55:44 23° NE 19:59:47 11° ESE
Helios 1A 3.1 19:52:48 10° N 19:56:45 71° WNW 20:00:38 10° SSW
CZ-4 R/B 4.1 19:56:12 10° WSW 19:57:42 12° W 19:59:12 10° WNW
IRS-1C Rocket 4.5 19:54:14 17° SE 19:58:05 50° ENE 20:03:10 10° N
Cosmos 2227 Rocket 2.3 19:52:40 10° S 19:58:09 56° ESE 20:03:40 10° NNE
Terra 1.8 19:54:12 13° SSE 19:58:27 84° WSW 20:03:10 10° NNW
SPOT 5 4.2 19:55:52 10° SSW 19:59:54 33° W 20:04:09 10° NNW
Cosmos 1515 Rocket 4.4 19:57:53 19° SE 20:00:16 33° E 20:04:14 10° NNE
Cosmos 2263 Rocket 3.0 19:59:46 17° SSE 20:03:03 30° ESE 20:07:55 10° NE
COSMOS 2455 3.1 19:57:05 10° NNW 20:03:04 62° ENE 20:07:19 20° SE
Cosmos 2100 Rocket 4.2 19:58:20 10° N 20:04:22 53° E 20:08:37 19° SSE
RESURS DK-1 2.8 20:03:32 18° S 20:06:01 39° ESE 20:09:45 10° NE
USA 276 2.1 20:04:37 10° NW 20:06:33 39° NNE 20:07:05 31° ENE
Okean O Rocket 2.8 20:07:03 10° SSW 20:11:02 38° W 20:15:04 10° NNW
Spot 2 Rocket 3.4 20:07:49 18° SSE 20:11:36 86° E 20:16:42 10° NNW
Cosmos 1980 3.7 20:05:57 10° NNW 20:11:37 80° WSW 20:15:38 20° SSE
Cosmos 1300 4.0 20:09:00 10° NNW 20:11:43 27° W 20:14:26 10° SSW
Helios 1B rocket 4.3 20:12:55 10° SSW 20:15:52 22° W 20:18:49 10° NW
ERS-1 Rocket 3.9 20:17:13 10° S 20:21:53 43° W 20:26:40 10° NNW
Cosmos 1437 Rocket 2.9 20:21:20 34° SE 20:22:16 43° E 20:25:40 10° NNE
Cosmos 921 Rocket 3.2 20:18:22 10° SSW 20:22:34 69° WNW 20:26:54 10° NNE
Cosmos 2219 3.7 20:20:35 23° SSE 20:23:34 39° ESE 20:28:51 10° NE
USA 238 DEB 4.1 20:17:40 10° NW 20:25:11 74° WSW 20:30:45 22° SSE
USA 238 4.1 20:17:46 10° NW 20:25:17 75° WSW 20:30:51 22° SSE
SL-14 R/B 3.8 20:27:12 13° SSW 20:30:31 55° W 20:34:23 10° N
Cosmos 2123 Rocket 4.0 20:26:43 20° S 20:31:11 67° E 20:37:24 10° NNE
Geosat 4.2 20:27:02 10° NE 20:31:53 49° ESE 20:34:33 25° S
Cosmos 2082 4.4 20:31:12 27° SE 20:33:09 34° ESE 20:38:15 10° NE
Cosmos 967 Rocket 4.5 20:29:51 10° NNW 20:36:15 87° WSW 20:39:52 28° SSE
USA 290 3.7 20:41:32 24° ENE 20:41:32 24° ENE 20:43:24 10° NE
Cosmos 1809 Rocket 4.4 20:38:14 18° S 20:43:00 89° W 20:49:10 10° N
Cosmos 2237 Rocket 3.0 20:39:56 10° NW 20:45:19 45° WSW 20:48:43 21° SSW
Cosmos 1459 Rocket 4.1 20:39:09 10° N 20:45:30 82° W 20:49:28 25° S
Meteor 2-14 Rocket 4.4 20:41:09 19° S 20:45:40 89° E 20:51:50 10° N
SL-4 R/B 2.1 20:47:40 47° SE 20:47:45 47° SE 20:51:41 10° ENE
Cosmos 1140 Rocket 4.1 20:46:57 32° SE 20:47:55 35° E 20:52:32 10° NE
Meteor 1-15 Rocket 4.1 20:44:44 10° N 20:50:23 88° E 20:53:03 32° S
Cosmos 1802 Rocket 4.0 20:44:00 10° N 20:50:28 84° E 20:53:56 30° S
Cosmos 2061 Rocket 4.4 20:45:59 10° N 20:52:03 48° ENE 20:54:39 31° SE
Cosmos 1953 3.0 20:52:31 10° N 20:55:58 34° ENE 20:56:11 34° E
SL-08 R/B 4.4 20:53:01 10° N 20:59:05 70° E 21:01:43 35° SSE
Meteor 1-22 Rocket 4.5 20:57:09 10° NNW 21:02:26 59° W 21:05:15 28° SSW
Lacrosse 4 Rocket 1.4 20:59:00 10° NNW 21:03:12 71° WSW 21:04:06 52° S
DNEPR-1 R/B 4.2 20:57:22 10° SW 21:03:41 80° WNW 21:08:51 10° NNE
Cosmos 2016 Rocket 4.0 21:03:15 10° N 21:09:37 84° W 21:12:39 34° S
Cosmos 407 Rocket 4.3 21:10:51 31° ESE 21:10:56 31° E 21:15:23 10° NE
Ariane Rocket 3.8 21:09:58 26° SSW 21:12:20 44° W 21:17:11 10° NNW
Cosmos 1844 Rocket 4.0 21:13:11 22° E 21:13:11 22° E 21:17:14 10° NE
Cosmos 2228 Rocket 4.3 21:17:11 28° E 21:17:11 28° E 21:20:53 10° NNE
CZ-4C R/B 4.1 21:16:21 10° NNE 21:18:25 31° NE 21:18:25 31° NE
GP-B 3.1 21:18:42 10° N 21:23:05 77° W 21:23:59 54° SSW
Cosmos 1269 Rocket 4.1 21:20:32 31° SSW 21:23:06 77° WNW 21:28:24 10° NNE
Cosmos 1707 Rocket 4.1 21:28:01 40° E 21:28:01 40° E 21:31:54 10° NNE
Cosmos 2084 Rocket 3.3 21:24:56 10° NW 21:29:02 64° WSW 21:29:07 64° SW
Meteor 1-12 Rocket 4.4 21:23:31 10° NNW 21:29:25 74° W 21:31:34 41° S
ATLAS CENTAUR R/B 2.6 21:28:06 10° WNW 21:31:05 26° WSW 21:31:05 26° WSW
Cosmos 489 Rocket 4.4 21:26:46 10° NNW 21:33:00 84° WSW 21:35:02 46° S
Cosmos 1933 Rocket 4.4 21:29:34 10° NNW 21:33:41 41° W 21:34:40 35° SW
IRIDIUM 103 4.3 21:33:34 54° SSE 21:34:36 69° E 21:39:48 10° N
ATLAS 2AS CENTAUR R/B 4.1 21:37:43 20° ESE 21:37:43 20° ESE 21:42:18 10° ENE
ALOS 2 4.2 21:37:03 23° E 21:37:40 23° ENE 21:41:08 10° NNE
SL-16 R/B 2.5 21:34:40 10° NNW 21:40:12 57° WSW 21:41:38 44° SSW
Cosmos 2227 Rocket 4.4 21:38:10 10° WSW 21:42:33 23° NW 21:46:58 10° N
Cosmos 2344 4.4 21:36:30 10° NNW 21:44:39 59° NE 21:52:06 22° ESE
Cosmos 1733 Rocket 3.2 21:40:38 10° N 21:44:57 58° E 21:45:02 58° E
Cosmos 2263 Rocket 3.4 21:41:29 10° SW 21:46:46 39° WNW 21:52:06 10° N
Cosmos 2233 Rocket 4.3 21:41:03 10° NNW 21:47:15 60° W 21:49:37 38° SSW
Cosmos 1869 Rocket 4.2 21:43:51 10° NNW 21:48:01 45° W 21:48:34 42° WSW
COSMOS 2455 4.5 21:44:05 10° WNW 21:48:27 21° WSW 21:50:27 18° SW
Okean 2 3.6 21:50:02 59° W 21:50:03 59° W 21:53:55 10° N
Okean 3 3.6 21:50:57 59° W 21:51:10 60° W 21:55:14 10° N
IRIDIUM 106 4.3 21:51:50 58° SSW 21:52:53 81° W 21:58:08 10° N
CZ-2C R/B 3.5 21:51:07 10° NNE 21:55:42 88° ESE 21:56:01 78° S
Aureole 3 Rocket 3.7 21:54:53 10° N 21:57:14 36° NE 21:57:14 36° NE
SeaSat 1 4.4 21:57:55 15° E 22:00:19 21° NE 22:03:55 10° N
ASTEX 1 3.3 21:56:44 10° N 22:01:43 82° W 22:02:22 67° SSW
Cosmos 1943 3.2 21:56:10 10° NNW 22:01:54 74° ENE 22:03:04 56° SE
MetOp-A 3.7 22:10:28 76° SSW 22:10:45 80° WSW 22:15:23 10° NNW
Cosmos 1862 Rocket 3.7 22:11:30 64° W 22:11:38 65° W 22:16:02 10° N
Cosmos 1763 Rocket 3.5 22:06:43 10° NNW 22:11:50 66° ENE 22:12:23 61° ESE
Cosmos 1271 Rocket 4.0 22:16:29 31° NE 22:16:29 31° NE 22:18:43 10° NNE
Okean 1-7 3.1 22:19:41 70° NNW 22:19:41 70° NNW 22:23:26 10° N
Cosmos 1603 4.1 22:13:52 10° NNW 22:19:23 54° ENE 22:20:41 44° ESE
ARIANE 5 R/B 2.8 22:20:49 63° W 22:20:49 63° W 22:25:08 10° NNW
SL-8 R/B 3.8 22:18:48 10° WNW 22:22:54 61° W 22:22:54 61° W
SL-4 R/B 3.5 22:22:02 10° W 22:25:51 35° NNW 22:29:34 10° NE
Spot 4 3.8 22:30:33 74° WSW 22:30:39 74° WSW 22:35:30 10° NNW
SJ 16-02 2.6 22:38:57 31° ENE 22:38:57 31° ENE 22:41:55 10° NE
PSLV R/B 3.7 22:34:30 10° NNE 22:38:27 72° NE 22:38:27 72° NE
NOSS 3-1 (C) 4.1 22:32:36 10° NW 22:40:07 84° WSW 22:43:29 43° SSE
Cosmos 1300 Rocket 4.5 22:39:37 10° N 22:43:38 39° ENE 22:43:38 39° ENE
Cosmos 1072 Rocket 4.5 22:38:03 10° NNW 22:44:08 66° W 22:45:16 55° SW
Cosmos 676 Rocket 4.0 22:44:37 64° ESE 22:44:41 64° ESE 22:49:53 10° NNE
USA 307 3.7 22:54:11 42° N 22:54:11 42° N 22:57:25 10° NE
Cosmos 1844 Rocket 3.2 22:54:47 39° WSW 22:56:25 52° WNW 23:01:59 10° NNE
Cosmos 1703 Rocket 3.8 22:59:24 61° NW 22:59:24 61° NW 23:03:18 10° N
Cosmos 2251 Rocket 4.4 22:59:04 36° WSW 23:00:25 43° WNW 23:05:32 10° N
Cosmos 1844 4.1 22:59:50 42° WSW 23:01:14 53° WNW 23:06:41 10° NNE
USA 234 3.2 22:56:04 10° NE 23:02:34 66° SE 23:03:50 55° S
Cosmos 1782 Rocket 3.8 22:59:47 10° N 23:03:54 63° ENE 23:03:54 63° ENE
USA 59 Rocket 0.8 23:04:14 10° NNW 23:07:54 46° NE 23:08:27 44° ENE
Cosmos 1954 Rocket 4.2 23:07:46 54° WSW 23:08:27 60° WNW 23:13:36 10° NNE
Tsikada Rocket 3.9 23:12:12 61° SSW 23:13:23 84° W 23:19:41 10° N
ALOS 2 3.9 23:14:27 30° W 23:14:27 30° W 23:17:46 10° NNW
ATLAS 3B R/B 4.4 23:07:23 10° NNW 23:14:26 34° NE 23:21:14 10° ESE
Meteor 1-24 Rocket 3.9 23:13:40 59° SW 23:14:45 73° W 23:20:42 10° N
Cosmos 540 Rocket 4.2 23:10:04 10° NW 23:14:32 39° W 23:14:32 39° W
Cosmos 304 Rocket 4.3 23:22:36 48° E 23:22:36 48° E 23:26:54 10° NNE
YAOGAN 20A 4.5 23:22:54 69° S 23:23:32 78° ESE 23:29:35 10° NE
Cosmos 1606 4.4 23:21:52 10° N 23:23:21 24° NNE 23:23:21 24° NNE
YAOGAN 20B 4.5 23:24:46 68° S 23:25:22 76° ESE 23:31:25 10° NE
Cosmos 468 Rocket 4.5 23:20:48 10° NNW 23:25:26 45° W 23:25:26 45° W
Cosmos 841 Rocket 3.3 23:21:48 10° NNW 23:27:05 85° ENE 23:27:33 74° SE
ATLAS 2AS CENTAUR R/B 2.7 23:25:05 45° SW 23:27:34 80° NW 23:34:35 10° NNE
NOSS 3-1 (A) 4.0 23:20:57 10° NW 23:28:29 84° SW 23:32:25 38° SSE
Cosmos 2279 Rocket 4.2 23:22:41 10° N 23:28:50 61° E 23:30:32 45° SE
Meteor 2-5 Rocket 4.1 23:27:46 50° WSW 23:28:55 59° WNW 23:34:49 10° N
BREEZE-M DEB (TANK) 3.1 23:20:39 10° WSW 23:29:34 83° NNW 23:32:35 10° ENE
H-2A R/B 3.6 23:31:18 31° ENE 23:31:18 31° ENE 23:34:23 10° N
Cosmos 2242 Rocket 3.7 23:31:50 68° ENE 23:31:50 68° ENE 23:36:03 10° NNE
Cosmos 1850 Rocket 4.0 23:32:32 64° ESE 23:32:46 65° ESE 23:37:53 10° NNE
SeaSat 1 2.6 23:37:33 58° W 23:37:33 58° W 23:42:10 10° NNW
IDEFIX/ARIANE 42P 4.3 23:36:21 10° NE 23:40:13 21° E 23:41:28 19° ESE
Cosmos 1833 Rocket 3.5 23:35:59 10° NNW 23:41:23 45° ENE 23:44:08 26° ESE
